• In Latvia
  • List of Countries
  • For 7 days
  • Water Temperature
  • Satellite Maps
  • Weather Map
  • Weather Widgets
  • user-avatar
    Login

    Hourly Weather Fier

    Today, 26 September, Tuesday

    Time Temperature Precipitation Wind Pressure Humidity
    00:00 +19°C° 0 mm 1 mps 761 mmHg 75%
    01:00 +19°C° 0 mm 1 mps 761 mmHg 76%
    02:00 +17°C° 0 mm 2 mps 761 mmHg 76%
    03:00 +17°C° 0 mm 2 mps 761 mmHg 77%
    04:00 +17°C° 0 mm 2 mps 761 mmHg 77%
    05:00 +17°C° 0 mm 2 mps 761 mmHg 74%
    06:00 +18°C° 0 mm 2 mps 761 mmHg 71%
    07:00 +19°C° 0 mm 2 mps 761 mmHg 69%
    08:00 +22°C° 0 mm 1 mps 761 mmHg 61%
    09:00 +24°C° 0 mm 1 mps 761 mmHg 54%
    10:00 +26°C° 0 mm 1 mps 762 mmHg 47%
    11:00 +26°C° 0 mm 1 mps 761 mmHg 46%
    12:00 +27°C° 0 mm 2 mps 761 mmHg 45%
    13:00 +27°C° 0 mm 3 mps 761 mmHg 44%
    14:00 +26°C° 0.1 mm 3 mps 761 mmHg 47%
    15:00 +26°C° 0.1 mm 3 mps 761 mmHg 50%
    16:00 +25°C° 0.1 mm 3 mps 761 mmHg 54%
    17:00 +24°C° 0 mm 3 mps 762 mmHg 60%
    18:00 +21°C° 0 mm 3 mps 762 mmHg 67%
    19:00 +19°C° 0 mm 2 mps 762 mmHg 74%
    20:00 +19°C° 0 mm 2 mps 763 mmHg 75%
    21:00 +19°C° 0 mm 2 mps 763 mmHg 76%
    22:00 +18°C° 0 mm 2 mps 763 mmHg 77%
    23:00 +18°C° 0 mm 2 mps 763 mmHg 77%

    Tomorrow, 27 September, Wednesday

    Time Temperature Precipitation Wind Pressure Humidity
    00:00 +18°C° 0 mm 2 mps 763 mmHg 77%
    01:00 +19°C° 0 mm 1 mps 763 mmHg 77%
    02:00 +18°C° 0 mm 1 mps 763 mmHg 77%
    03:00 +18°C° 0 mm 1 mps 763 mmHg 76%
    04:00 +18°C° 0 mm 1 mps 763 mmHg 76%
    05:00 +19°C° 0 mm 1 mps 763 mmHg 73%
    06:00 +20°C° 0 mm 1 mps 763 mmHg 70%
    07:00 +20°C° 0 mm 1 mps 763 mmHg 67%
    08:00 +22°C° 0 mm 1 mps 764 mmHg 61%
    09:00 +24°C° 0 mm 1 mps 764 mmHg 54%
    10:00 +26°C° 0 mm 1 mps 764 mmHg 47%
    11:00 +27°C° 0 mm 1 mps 764 mmHg 46%
    12:00 +27°C° 0 mm 2 mps 764 mmHg 44%
    13:00 +27°C° 0 mm 2 mps 763 mmHg 42%
    14:00 +27°C° 0 mm 2 mps 763 mmHg 46%
    15:00 +26°C° 0 mm 3 mps 763 mmHg 49%
    16:00 +25°C° 0 mm 3 mps 763 mmHg 53%
    17:00 +24°C° 0 mm 2 mps 764 mmHg 60%
    18:00 +21°C° 0 mm 2 mps 764 mmHg 67%
    19:00 +21°C° 0 mm 1 mps 764 mmHg 74%
    20:00 +21°C° 0 mm 1 mps 764 mmHg 74%
    21:00 +20°C° 0 mm 1 mps 765 mmHg 74%
    22:00 +20°C° 0 mm 1 mps 765 mmHg 74%
    23:00 +20°C° 0 mm 1 mps 765 mmHg 74%

    Day after tomorrow, 28 September, Thursday

    Time Temperature Precipitation Wind Pressure Humidity
    00:00 +20°C° 0 mm 1 mps 765 mmHg 74%
    01:00 +20°C° 0 mm 1 mps 765 mmHg 74%
    02:00 +20°C° 0 mm 1 mps 765 mmHg 74%
    03:00 +19°C° 0 mm 1 mps 764 mmHg 74%
    04:00 +18°C° 0 mm 2 mps 764 mmHg 74%
    05:00 +19°C° 0 mm 2 mps 764 mmHg 72%
    06:00 +19°C° 0 mm 2 mps 764 mmHg 70%
    07:00 +20°C° 0 mm 2 mps 764 mmHg 68%
    08:00 +23°C° 0 mm 2 mps 764 mmHg 61%
    09:00 +25°C° 0 mm 2 mps 764 mmHg 55%
    10:00 +26°C° 0 mm 1 mps 764 mmHg 48%
    11:00 +27°C° 0.1 mm 2 mps 764 mmHg 47%
    12:00 +27°C° 0.1 mm 3 mps 764 mmHg 45%
    13:00 +28°C° 0.1 mm 3 mps 764 mmHg 44%
    14:00 +27°C° 0.4 mm 3 mps 764 mmHg 48%
    15:00 +26°C° 0.4 mm 4 mps 763 mmHg 52%
    16:00 +25°C° 0.4 mm 4 mps 763 mmHg 55%
    17:00 +24°C° 0.3 mm 3 mps 763 mmHg 62%
    18:00 +22°C° 0.3 mm 3 mps 764 mmHg 68%
    19:00 +20°C° 0.3 mm 3 mps 764 mmHg 74%
    20:00 +20°C° 0.1 mm 3 mps 764 mmHg 75%
    21:00 +20°C° 0.1 mm 3 mps 764 mmHg 76%
    22:00 +19°C° 0.1 mm 2 mps 764 mmHg 77%
    23:00 +19°C° 0.2 mm 2 mps 764 mmHg 78%

    29 September, Friday

    Time Temperature Precipitation Wind Pressure Humidity
    00:00 +19°C° 0.2 mm 2 mps 764 mmHg 78%
    01:00 +18°C° 0.2 mm 2 mps 764 mmHg 79%
    02:00 +18°C° 0.4 mm 2 mps 763 mmHg 79%
    03:00 +18°C° 0.4 mm 2 mps 763 mmHg 79%
    04:00 +17°C° 0.4 mm 2 mps 763 mmHg 79%
    05:00 +18°C° 0.2 mm 2 mps 763 mmHg 76%
    06:00 +18°C° 0.2 mm 2 mps 763 mmHg 74%
    07:00 +19°C° 0.2 mm 2 mps 763 mmHg 72%
    08:00 +21°C° 0.1 mm 2 mps 763 mmHg 65%
    09:00 +23°C° 0.1 mm 2 mps 763 mmHg 58%
    10:00 +25°C° 0.1 mm 2 mps 763 mmHg 51%
    11:00 +25°C° 0.4 mm 2 mps 763 mmHg 52%
    12:00 +25°C° 0.4 mm 2 mps 763 mmHg 52%
    13:00 +25°C° 0.4 mm 2 mps 762 mmHg 52%
    14:00 +24°C° 0.8 mm 2 mps 762 mmHg 56%
    15:00 +24°C° 0.8 mm 2 mps 762 mmHg 61%
    16:00 +23°C° 0.8 mm 2 mps 762 mmHg 65%
    17:00 +21°C° 0.5 mm 2 mps 762 mmHg 69%
    18:00 +21°C° 0.5 mm 1 mps 762 mmHg 73%
    19:00 +20°C° 0.5 mm 1 mps 763 mmHg 77%
    20:00 +19°C° 0.1 mm 1 mps 763 mmHg 77%
    21:00 +18°C° 0.1 mm 2 mps 763 mmHg 78%
    22:00 +17°C° 0.1 mm 2 mps 763 mmHg 79%
    23:00 +17°C° 0.2 mm 2 mps 763 mmHg 79%

    30 September, Saturday

    Time Temperature Precipitation Wind Pressure Humidity
    00:00 +17°C° 0.2 mm 2 mps 762 mmHg 79%
    01:00 +17°C° 0.2 mm 2 mps 762 mmHg 79%
    02:00 +17°C° 0.2 mm 2 mps 762 mmHg 79%
    03:00 +16°C° 0.2 mm 3 mps 762 mmHg 79%
    04:00 +16°C° 0.2 mm 3 mps 762 mmHg 79%
    05:00 +17°C° 0.1 mm 2 mps 762 mmHg 77%
    06:00 +17°C° 0.1 mm 2 mps 762 mmHg 74%
    07:00 +18°C° 0.1 mm 2 mps 762 mmHg 72%
    08:00 +19°C° 0 mm 2 mps 762 mmHg 65%
    09:00 +22°C° 0 mm 1 mps 762 mmHg 58%
    10:00 +24°C° 0 mm 1 mps 762 mmHg 51%
    11:00 +24°C° 0 mm 1 mps 762 mmHg 50%
    12:00 +24°C° 0 mm 2 mps 761 mmHg 49%
    13:00 +25°C° 0 mm 2 mps 761 mmHg 48%
    14:00 +24°C° 0 mm 2 mps 761 mmHg 50%
    15:00 +24°C° 0 mm 2 mps 761 mmHg 52%
    16:00 +24°C° 0 mm 2 mps 761 mmHg 53%
    17:00 +21°C° 0 mm 2 mps 761 mmHg 60%
    18:00 +21°C° 0 mm 1 mps 761 mmHg 67%
    19:00 +20°C° 0 mm 1 mps 761 mmHg 73%
    20:00 +19°C° 0 mm 1 mps 761 mmHg 74%
    21:00 +19°C° 0 mm 1 mps 761 mmHg 75%
    22:00 +18°C° 0 mm 1 mps 762 mmHg 76%
    23:00 +18°C° 0 mm 1 mps 761 mmHg 76%

    1 October, Sunday

    Time Temperature Precipitation Wind Pressure Humidity
    00:00 +18°C° 0 mm 1 mps 761 mmHg 76%
    01:00 +18°C° 0 mm 1 mps 761 mmHg 77%
    02:00 +16°C° 0.1 mm 1 mps 761 mmHg 77%
    03:00 +16°C° 0.1 mm 1 mps 761 mmHg 77%
    04:00 +16°C° 0.1 mm 1 mps 761 mmHg 77%
    05:00 +18°C° 0 mm 1 mps 761 mmHg 75%
    06:00 +18°C° 0 mm 1 mps 761 mmHg 73%
    07:00 +18°C° 0 mm 2 mps 761 mmHg 71%
    08:00 +20°C° 0 mm 2 mps 761 mmHg 64%
    09:00 +21°C° 0 mm 2 mps 761 mmHg 58%
    10:00 +24°C° 0 mm 2 mps 761 mmHg 52%
    11:00 +24°C° 0 mm 2 mps 761 mmHg 51%
    12:00 +25°C° 0 mm 2 mps 761 mmHg 49%
    13:00 +25°C° 0 mm 3 mps 760 mmHg 48%
    14:00 +25°C° 0 mm 3 mps 760 mmHg 51%
    15:00 +24°C° 0 mm 3 mps 760 mmHg 54%
    16:00 +24°C° 0 mm 3 mps 760 mmHg 57%
    17:00 +21°C° 0 mm 2 mps 760 mmHg 64%
    18:00 +21°C° 0 mm 1 mps 760 mmHg 72%
    19:00 +19°C° 0 mm 1 mps 760 mmHg 79%
    20:00 +19°C° 0 mm 1 mps 761 mmHg 80%
    21:00 +19°C° 0 mm 1 mps 761 mmHg 80%
    22:00 +19°C° 0 mm 1 mps 761 mmHg 80%
    23:00 +18°C° 0 mm 2 mps 761 mmHg 81%
    Show more